Ponca City, OK

8:09 PM CST on November 13, 2019 (GMT -0600)
Ponca City Municipal

Weather History for KPNC - October, 2019

Change the Weather History Date:

Wednesday, October 23, 2019

  Actual Average Record
Temperature  
Mean Temperature 63 °F -  
Max Temperature 75 °F 72 °F 87 °F (1973)
Min Temperature 51 °F 49 °F 28 °F (2006)
Degree Days  
Heating Degree Days 2    
Growing Degree Days 13 (Base 50)    
Moisture  
Dew Point 36 °F    
Average Humidity 42    
Maximum Humidity 59    
Minimum Humidity 23    
Precipitation  
Precipitation 0.00 in - - ()
Sea Level Pressure  
Sea Level Pressure 29.94 in    
Wind  
Wind Speed 8 mph (SW)    
Max Wind Speed 18 mph    
Max Gust Speed 26 mph    
Visibility 10 miles    
Events      
Averages and records for this station are not official NWS values.
T = Trace of Precipitation, MM = Missing Value Source: NWS Daily Summary

Daily Weather History Graph

Daily Weather History Graph

Search for Another Location

Airport or City:

Astronomy

Oct. 23, 2019 Rise Set
Actual Time 7:43 AM CDT 6:41 PM CDT
Civil Twilight 7:16 AM CDT 7:08 PM CDT
Nautical Twilight 6:46 AM CDT 7:38 PM CDT
Astronomical Twilight 6:16 AM CDT 8:08 PM CDT
Moon 2:14 AM CDT (10/23) 4:22 PM CDT (10/23)
Length of Visible Light 11h 51m
Length of Day
10h 58m
Waning Crescent, 26% of the Moon is Illuminated
Oct 23
Waning Crescent
Oct 27
New
Nov 4
First Quarter
Nov 12
Full
Nov 19
Last Quarter

Hourly Weather History & Observations

Time (CDT) Temp. Dew Point Humidity Pressure Visibility Wind Dir Wind Speed Gust Speed Precip Events Conditions
12:53 AM 55.0 °F 32.0 °F 42% 29.96 in 10.0 mi South 5.8 mph - N/A   Clear
1:53 AM 52.0 °F 32.0 °F 47% 29.94 in 10.0 mi South 5.8 mph - N/A   Clear
2:53 AM 51.1 °F 32.0 °F 48% 29.95 in 10.0 mi South 5.8 mph - N/A   Clear
3:53 AM 51.1 °F 32.0 °F 48% 29.94 in 9.0 mi South 5.8 mph - N/A   Clear
4:53 AM 52.0 °F 32.0 °F 47% 29.93 in 10.0 mi South 4.6 mph - N/A   Clear
5:53 AM 53.1 °F 33.1 °F 47% 29.92 in 9.0 mi Variable 5.8 mph - N/A   Clear
6:53 AM 52.0 °F 33.1 °F 49% 29.93 in 10.0 mi Variable 6.9 mph - N/A   Clear
7:53 AM 54.0 °F 33.1 °F 45% 29.91 in 10.0 mi South 10.4 mph 25.3 mph N/A   Clear
8:53 AM 55.0 °F 35.1 °F 47% 29.91 in 10.0 mi South 9.2 mph 16.1 mph N/A   Clear
9:53 AM 60.1 °F 37.9 °F 44% 29.91 in 10.0 mi South 9.2 mph - N/A   Clear
10:53 AM 68.0 °F 37.9 °F 33% 29.92 in 10.0 mi SSW 18.4 mph 26.5 mph N/A   Unknown
11:53 AM 70.0 °F 37.9 °F 31% 29.92 in 10.0 mi SW 13.8 mph 24.2 mph N/A   Clear
12:53 PM 72.0 °F 37.9 °F 29% 29.91 in 10.0 mi West 13.8 mph 23.0 mph N/A   Clear
1:53 PM 73.9 °F 37.0 °F 26% 29.89 in 10.0 mi West 12.7 mph 19.6 mph N/A   Clear
2:53 PM 75.0 °F 37.0 °F 25% 29.87 in 10.0 mi SW 6.9 mph - N/A   Clear
3:53 PM 75.9 °F 36.0 °F 23% 29.88 in 10.0 mi WSW 4.6 mph - N/A   Clear
4:53 PM 73.9 °F 36.0 °F 25% 29.90 in 10.0 mi NNW 8.1 mph - N/A   Clear
5:53 PM 71.1 °F 37.0 °F 29% 29.91 in 10.0 mi North 9.2 mph - N/A   Clear
6:53 PM 63.0 °F 39.0 °F 41% 29.95 in 10.0 mi North 4.6 mph - N/A   Clear
7:53 PM 55.9 °F 39.0 °F 53% 29.99 in 10.0 mi North 4.6 mph - N/A   Clear
8:53 PM 57.0 °F 41.0 °F 55% 30.01 in 10.0 mi NNE 11.5 mph - N/A   Clear
9:53 PM 57.0 °F 41.0 °F 55% 30.03 in 10.0 mi NNE 12.7 mph - N/A   Clear
10:53 PM 55.9 °F 41.0 °F 57% 30.07 in 10.0 mi NE 6.9 mph - N/A   Mostly Cloudy
11:53 PM 54.0 °F 39.9 °F 59% 30.07 in 10.0 mi NNE 10.4 mph - N/A   Scattered Clouds